[[{"header":{"parameterUnit":"m.s-1","parameterCategory":1,"la1":30.2991,"la2":30.254,"lo1":-89.0895,"lo2":-89.0444,"dy":0.0017,"dx":0.0017,"nx":28,"ny":28,"refTime":"2023-08-29T03:00:00:Z","depth":0,"parameterNumber":2,"parameterNumberName":"U-component_of_WINDS"},"data":[0,0,0,0,0,0,0,0,0,0,0,0,0,0,0,0,0,0,0,0,0,0,0,0,0,0,0,0,0,0,0,0,0,0,0,0,0,0,0,0,0,0,0,0,0,0,0,0,0,0,0,0,0,0,0,0,0,0,-5.6119,-5.6119,0,-5.6129,-5.6129,-5.6129,-5.6001,-5.5998,-5.5994,-5.5991,-5.5999,-5.6002,-5.6006,0,0,0,0,0,0,0,0,0,0,0,0,0,-5.5988,-5.5991,-5.6119,-5.6119,-5.6119,-5.6129,-5.6129,-5.6129,-5.6002,-5.5997,-5.5993,-5.5989,-5.5998,-5.6002,-5.6006,0,0,0,0,0,0,0,0,0,0,0,0,0,-5.6026,-5.5992,-5.6119,-5.6057,-5.6051,-5.6129,-5.6129,-5.6129,-5.6003,-5.5997,-5.5992,-5.5987,-5.5996,-5.6001,-5.6006,-5.6143,0,0,-5.6022,-5.6025,0,0,0,0,0,0,0,0,-5.6024,-5.6031,-5.6066,-5.6061,-5.6055,-5.6058,-5.6085,-5.6134,-5.6004,-5.6021,-5.5991,-5.5985,-5.6023,-5.6025,-5.6039,-5.6143,-5.6144,-5.6023,-5.6026,-5.6028,-5.603,0,0,0,0,0,0,0,-5.6021,-5.603,-5.6122,-5.6066,-5.606,-5.6028,-5.6028,-5.6094,-5.6051,-5.6019,-5.601,-5.6013,-5.6019,-5.6034,-5.6038,-5.6144,-5.6023,-5.6027,-5.603,-5.6032,-5.6364,-5.6369,0,0,0,0,0,0,-5.6027,-5.6028,-5.6122,-5.6123,-5.6026,-5.6035,-5.6034,-5.6063,-5.605,-5.6043,-5.6017,-5.6007,-5.6028,-5.6032,-5.6038,-5.6198,-5.6028,-5.6033,-5.6036,-5.6358,-5.6365,-5.6371,0,0,0,0,0,0,-5.6025,-5.6037,-5.6122,-5.6073,-5.6081,-5.6042,-5.6075,-5.6065,-5.608,-5.6049,-5.604,-5.6041,-5.6024,-5.603,-5.6119,-5.6197,-5.6035,-5.604,-5.6351,-5.636,-5.6368,-5.652,0,0,0,0,0,0,-5.6022,-5.6037,-5.6088,-5.6075,-5.6085,-5.6203,-5.608,-5.6069,-5.609,-5.6077,-5.6068,-5.6062,-5.602,-5.6112,-5.6124,-5.6201,-5.6044,-5.6344,-5.6355,-5.6365,-5.6508,-5.6533,-5.6554,0,0,0,0,0,-5.6018,-5.613,-5.6092,-5.6104,-5.6148,-5.6208,-5.6213,-5.6163,-5.6097,-5.6148,-5.6128,-5.6062,-5.6187,-5.6122,-5.6134,-5.6214,-5.6339,-5.6352,-5.6365,-5.6497,-5.6528,-5.6553,0,0,0,0,0,0,-5.6151,-5.6127,-5.6084,-5.6195,-5.6205,-5.6186,-5.6249,-5.6196,-5.6224,-5.621,-5.6146,-5.6146,-5.6245,-5.6238,-5.6166,-5.6347,-5.6251,-5.6267,-5.6348,-5.6376,-5.6399,-5.6398,-5.6048,0,0,0,0,0,-5.6194,-5.6245,-5.622,-5.6321,-5.6328,-5.6289,-5.6312,-5.6274,-5.628,-5.6283,-5.6269,-5.6278,-5.6319,-5.6347,-5.6383,-5.6507,-5.6504,-5.6568,-5.6591,-5.661,-5.6624,-5.6691,-5.672,-5.6413,-5.6413,-5.6413,0,0,-5.6282,-5.6275,-5.631,-5.6348,-5.635,-5.6405,-5.6292,-5.6354,-5.6393,-5.6292,-5.6375,-5.6366,-5.6371,-5.6479,-5.6525,-5.6476,-5.6709,-5.6626,-5.6642,-5.6646,-5.6707,-5.6737,-5.6762,-5.6422,-5.642,-5.6419,0,0,-5.647,-5.647,-5.6554,-5.656,-5.6567,-5.654,-5.6561,-5.6551,-5.6541,-5.6624,-5.655,-5.6596,-5.6668,-5.6675,-5.6689,-5.6884,-5.6825,-5.6897,-5.7017,-5.7083,-5.7107,-5.7129,-5.7199,-5.7225,-5.6912,-5.6912,-5.6912,0,-5.6578,-5.6657,-5.6604,-5.6672,-5.6691,-5.6604,-5.6689,-5.6697,-5.6715,-5.673,-5.6675,-5.6765,-5.6762,-5.6871,-5.692,-5.6933,-5.6955,-5.6897,-5.7108,-5.7129,-5.7148,-5.7215,-5.7241,-5.6921,-5.692,-5.6919,-5.6918,0,-5.679,-5.6847,-5.6914,-5.6936,-5.6963,-5.7039,-5.6997,-5.7031,-5.6991,-5.6971,-5.7057,-5.7051,-5.7086,-5.7109,-5.7069,-5.7213,-5.7182,-5.712,-5.7021,-5.7187,-5.7249,-5.7274,-5.6934,-5.6931,-5.6928,-5.6926,0,0,-5.706,-5.7054,-5.708,-5.7089,-5.7092,-5.7134,-5.7208,-5.7242,-5.7273,-5.7289,-5.7349,-5.7413,-5.7356,-5.7371,-5.7332,-5.739,-5.7547,-5.732,-5.7319,-5.7363,-5.7707,-5.7755,-5.7785,-5.7508,-5.7513,-5.7517,-5.7707,0,-5.7244,-5.7369,-5.7325,-5.7453,-5.7505,-5.7425,-5.7489,-5.7498,-5.7481,-5.7523,-5.7504,-5.7552,-5.7472,-5.7481,-5.7535,-5.7517,-5.7615,-5.7502,-5.7564,-5.7567,-5.7565,-5.7817,-5.7867,-5.8046,-5.773,-5.7734,-5.7737,0,-5.7474,-5.7502,-5.7636,-5.7632,-5.7652,-5.7711,-5.774,-5.7782,-5.779,-5.7774,-5.7794,-5.7743,-5.7815,-5.7719,-5.7817,-5.7742,-5.7764,-5.776,-5.7765,-5.7769,-5.7662,-5.7828,-5.8102,-5.8129,-5.7774,-5.7771,-5.7769,0,-5.7659,-5.7729,-5.7819,-5.783,-5.7827,-5.7871,-5.7871,-5.7875,-5.79,-5.7926,-5.7942,-5.7976,-5.7995,-5.8022,-5.7983,-5.7916,-5.8088,-5.7987,-5.8077,-5.8078,-5.8116,-5.8114,-5.8398,-5.8131,-5.8131,-5.813,-5.8129,0,-5.7868,-5.7953,-5.7903,-5.7958,-5.8051,-5.8,-5.8094,-5.8086,-5.8091,-5.8143,-5.8076,-5.8126,-5.8071,-5.8116,-5.8086,-5.8173,-5.8182,-5.8171,-5.8162,-5.8177,-5.8179,-5.8191,-5.8177,-5.8137,-5.8135,-5.8134,-5.8133,0,-5.8089,-5.8059,-5.8152,-5.8143,-5.8143,-5.8213,-5.8205,-5.8256,-5.8236,-5.8304,-5.8316,-5.8285,-5.8336,-5.8299,-5.8348,-5.8328,-5.8443,-5.8416,-5.8441,-5.8434,-5.8526,-5.8518,-5.8827,-5.8866,-5.8574,-5.8577,-5.8579,0,-5.8225,-5.8289,-5.8289,-5.832,-5.8326,-5.8376,-5.8402,-5.8356,-5.8385,-5.8402,-5.8452,-5.8497,-5.853,-5.8615,-5.8596,-5.8634,-5.8608,-5.8714,-5.8613,-5.8628,-5.8611,-5.8607,-5.8614,-5.8734,-5.8738,-5.8741,-5.8743,0,-5.847,-5.8452,-5.8493,-5.853,-5.8563,-5.8589,-5.861,-5.8639,-5.8592,-5.8629,-5.8681,-5.8707,-5.8759,-5.8805,-5.8837,-5.8837,-5.8784,-5.8775,-5.8798,-5.8814,-5.8826,-5.8822,-5.8497,-5.8768,-5.8765,-5.8764,-5.8762,-5.8761,-5.8652,-5.8706,-5.8716,-5.8764,-5.8775,-5.8797,-5.8845,-5.8833,-5.8876,-5.8916,-5.8885,-5.8948,-5.8957,-5.8995,-5.9003,-5.9051,-5.9007,-5.904,-5.9048,-5.9057,-5.9071,-5.8819,-5.9056,-5.9055,-5.9055,-5.9054,-5.9053,0,-5.8894,-5.8897,-5.8942,-5.8974,-5.9013,-5.896,-5.8981,-5.9017,-5.9073,-5.9087,-5.9123,-5.9184,-5.9229,-5.9215,-5.9256,-5.9297,-5.9273,-5.9309,-5.9306,-5.9307,-5.9107,-5.9083,-5.9328,-5.9328,-5.9328,-5.9328,-5.9328,-5.9328,-5.9024,-5.9114,-5.9098,-5.9194,-5.9195,-5.9257,-5.9274,-5.9294,-5.9305,-5.9377,-5.9415,-5.9407,-5.941,-5.9451,-5.949,-5.9485,-5.9503,-5.9549,-5.9535,-5.9348,-5.9321,-5.9295,-5.9273,-5.9553,-5.9554,-5.9731,-5.9733,-5.9734]},{"header":{"parameterUnit":"m.s-1","parameterCategory":1,"la1":30.2991,"la2":30.254,"lo1":-89.0895,"lo2":-89.0444,"dy":0.0017,"dx":0.0017,"nx":28,"ny":28,"refTime":"2023-08-29T03:00:00:Z","depth":0,"parameterNumber":3,"parameterNumberName":"V-component_of_WINDS"},"data":[0,0,0,0,0,0,0,0,0,0,0,0,0,0,0,0,0,0,0,0,0,0,0,0,0,0,0,0,0,0,0,0,0,0,0,0,0,0,0,0,0,0,0,0,0,0,0,0,0,0,0,0,0,0,0,0,0,0,0.4516,0.4519,0,0.4712,0.4714,0.4717,0.4819,0.4819,0.4819,0.4819,0.5024,0.5029,0.5034,0,0,0,0,0,0,0,0,0,0,0,0,0,0.4236,0.4241,0.4516,0.4519,0.4521,0.4712,0.4715,0.4717,0.4819,0.4819,0.4819,0.4819,0.5022,0.5028,0.5034,0,0,0,0,0,0,0,0,0,0,0,0,0,0.4388,0.4242,0.4516,0.4595,0.4604,0.4711,0.4715,0.4718,0.4819,0.4819,0.4819,0.4819,0.502,0.5027,0.5035,0.508,0,0,0.506,0.5063,0,0,0,0,0,0,0,0,0.4379,0.4398,0.4581,0.459,0.46,0.4741,0.4691,0.484,0.4819,0.4737,0.4819,0.482,0.493,0.4945,0.4981,0.509,0.5099,0.506,0.5065,0.5069,0.5071,0,0,0,0,0,0,0,0.4368,0.439,0.4594,0.4583,0.4595,0.4622,0.4644,0.472,0.483,0.4744,0.4752,0.4774,0.4935,0.4974,0.4987,0.5102,0.506,0.5067,0.5072,0.5075,0.5261,0.5261,0,0,0,0,0,0,0.4344,0.438,0.4588,0.46,0.4487,0.4627,0.4652,0.4696,0.483,0.485,0.4774,0.4778,0.496,0.4978,0.4995,0.5058,0.5069,0.5076,0.5081,0.5261,0.5261,0.5261,0,0,0,0,0,0,0.4338,0.4362,0.458,0.4492,0.4522,0.4632,0.4681,0.4699,0.4738,0.4851,0.4872,0.4792,0.4961,0.4983,0.5059,0.5066,0.508,0.5087,0.526,0.5261,0.5261,0.5183,0,0,0,0,0,0,0.4329,0.4359,0.4375,0.4492,0.4526,0.4638,0.4681,0.4703,0.4751,0.4759,0.4874,0.4894,0.4963,0.5046,0.5067,0.5078,0.5093,0.526,0.526,0.5261,0.5186,0.5181,0.5177,0,0,0,0,0,0.4319,0.4346,0.4376,0.44,0.4549,0.4639,0.4659,0.4736,0.4751,0.477,0.4844,0.489,0.5062,0.5053,0.5077,0.509,0.526,0.526,0.5261,0.5188,0.5182,0.5177,0,0,0,0,0,0,0.4228,0.4362,0.4397,0.4462,0.4538,0.4656,0.4681,0.4727,0.4801,0.4805,0.49,0.4925,0.4992,0.5049,0.5036,0.5143,0.5166,0.5171,0.5103,0.5098,0.5093,0.5078,0.51,0,0,0,0,0,0.4215,0.4275,0.439,0.4436,0.4473,0.457,0.4612,0.4666,0.4749,0.4782,0.4861,0.4941,0.5014,0.5059,0.5132,0.5195,0.5223,0.5216,0.5212,0.5208,0.5211,0.5251,0.525,0.5262,0.5262,0.5262,0,0,0.4189,0.4271,0.4302,0.442,0.4485,0.4547,0.4597,0.4659,0.4707,0.4792,0.4867,0.4928,0.5025,0.5094,0.5129,0.5144,0.5214,0.5208,0.5204,0.521,0.5251,0.525,0.5249,0.5262,0.5262,0.5262,0,0,0.4174,0.4241,0.4288,0.4353,0.4451,0.4516,0.4527,0.4639,0.4683,0.476,0.4826,0.4885,0.5007,0.5074,0.5124,0.5138,0.5184,0.5159,0.5135,0.5174,0.5173,0.5172,0.5179,0.518,0.5162,0.5162,0.5162,0,0.413,0.4224,0.4306,0.4366,0.4417,0.4497,0.4546,0.4606,0.4723,0.4757,0.4772,0.4929,0.5,0.5087,0.5091,0.5128,0.5146,0.5146,0.5166,0.5166,0.5167,0.5175,0.5177,0.5158,0.5159,0.5159,0.5159,0,0.4166,0.4231,0.4257,0.4368,0.4422,0.4476,0.4569,0.4615,0.4664,0.4729,0.4809,0.4896,0.4989,0.5015,0.5063,0.511,0.5117,0.5147,0.5173,0.5161,0.517,0.5173,0.5153,0.5154,0.5155,0.5156,0,0,0.4096,0.4254,0.4262,0.4314,0.443,0.4483,0.4543,0.4633,0.4671,0.4751,0.4804,0.4907,0.4938,0.4994,0.5052,0.5086,0.5094,0.5113,0.5117,0.5107,0.5153,0.5129,0.513,0.5126,0.5127,0.5127,0.5145,0,0.4097,0.4206,0.4283,0.4362,0.4425,0.4503,0.4556,0.4634,0.4697,0.4761,0.4831,0.4903,0.4937,0.4972,0.5009,0.5084,0.5104,0.5084,0.5178,0.5181,0.5151,0.5135,0.5109,0.5121,0.5149,0.515,0.515,0,0.4112,0.4189,0.4274,0.4386,0.4415,0.446,0.4551,0.4611,0.4703,0.4746,0.4811,0.4871,0.494,0.496,0.5058,0.5043,0.5087,0.5131,0.5133,0.5144,0.5164,0.5146,0.5127,0.5129,0.5156,0.5156,0.5155,0,0.4053,0.4178,0.4246,0.4288,0.4421,0.4451,0.4508,0.46,0.465,0.4731,0.4765,0.4853,0.4901,0.4969,0.5052,0.5059,0.5142,0.5169,0.5182,0.518,0.5195,0.5193,0.5183,0.5223,0.5223,0.5223,0.5223,0,0.4046,0.4095,0.4221,0.4263,0.4322,0.4412,0.4469,0.4532,0.4614,0.4672,0.4746,0.4799,0.4906,0.4972,0.5039,0.5111,0.5132,0.5171,0.5188,0.5164,0.5159,0.5193,0.5195,0.5224,0.5223,0.5223,0.5223,0,0.3989,0.4075,0.4154,0.4274,0.4305,0.4343,0.4447,0.4492,0.456,0.4632,0.4654,0.4762,0.4845,0.4935,0.5048,0.5093,0.5162,0.5186,0.513,0.5139,0.5148,0.5146,0.516,0.5167,0.5201,0.52,0.52,0,0.3978,0.4018,0.4142,0.4186,0.424,0.4309,0.4361,0.4454,0.4506,0.4615,0.4648,0.4736,0.4811,0.494,0.503,0.5118,0.5145,0.5144,0.5158,0.5134,0.5146,0.5142,0.5148,0.5138,0.5138,0.5137,0.5136,0,0.395,0.3992,0.4063,0.4151,0.4211,0.4285,0.4362,0.4394,0.4502,0.4557,0.4642,0.4701,0.4817,0.4905,0.5004,0.5066,0.512,0.5132,0.514,0.5115,0.5081,0.5101,0.5118,0.513,0.5131,0.5131,0.5132,0.5132,0.3916,0.3956,0.405,0.4129,0.4197,0.4268,0.4317,0.4392,0.4464,0.4565,0.4616,0.4701,0.4797,0.4936,0.4996,0.5066,0.5083,0.5094,0.5097,0.5098,0.5093,0.5071,0.5085,0.5085,0.5086,0.5086,0.5086,0,0.3892,0.3958,0.4029,0.4135,0.4197,0.4243,0.4332,0.4381,0.4455,0.4539,0.4612,0.4712,0.4798,0.4896,0.4989,0.5027,0.5054,0.5048,0.5046,0.506,0.5072,0.5056,0.5025,0.5025,0.5025,0.5025,0.5025,0.5025,0.3887,0.3958,0.4011,0.4118,0.4184,0.4267,0.4314,0.4382,0.4449,0.4557,0.4629,0.4692,0.4783,0.4884,0.4966,0.4993,0.5024,0.5011,0.5045,0.5054,0.5059,0.5063,0.5049,0.5017,0.5017,0.5028,0.5028,0.5028]}]]